Location: Madrid
(40.4000°N, 3.6830°W)
Time: 15:40:08

ISS - Pass Details

Date: 18 March 2018
Orbit: 403 x 406 km, 51.6° (Epoch: 17 March)

Event Time Altitude Azimuth Distance (km) Brightness Sun altitude
Exits shadow 06:38:16 - 296° (WNW) 1,513 -1.4 -9.1°
Reaches altitude 10° 06:38:24 10° 295° (WNW) 1,462 -1.5 -9.1°
Maximum altitude 06:41:32 44° 222° (SW) 569 -3.4 -8.5°
Drops below altitude 10° 06:44:39 10° 149° (SSE) 1,451 -0.7 -7.9°
Sets 06:46:46 0° 143° (SE) 2,306 0.5 -7.5°
